| time (UTC) | temp F | wind direction | speed MPH | gust MPH | rain 1hr in | rain 24hr in | rain mn in | humidity % | barometer mb |
| 20260903190404 | 84 | 230 | 1.0 | 6.0 | 0.00 | 0.31 | 0.19 | 66 | 1011.1 |
| 20260903185904 | 84 | 268 | 2.0 | 12.0 | 0.00 | 0.31 | 0.19 | 66 | 1011.2 |
| 20260903184904 | 84 | 276 | 2.0 | 9.0 | 0.00 | 0.32 | 0.19 | 65 | 1011.2 |
| 20260903184404 | 85 | 268 | 1.0 | 10.0 | 0.00 | 0.32 | 0.19 | 69 | 1011.3 |
| 20260903183904 | 85 | 232 | 5.0 | 10.0 | 0.00 | 0.33 | 0.19 | 66 | 1011.3 |
| 20260903182905 | 84 | 268 | 4.0 | 12.0 | 0.00 | 0.36 | 0.19 | 66 | 1011.4 |
| 20260903182404 | 85 | 266 | 3.0 | 10.0 | 0.00 | 0.36 | 0.19 | 64 | 1011.4 |
| 20260903181905 | 84 | 227 | 3.0 | 10.0 | 0.00 | 0.36 | 0.19 | 67 | 1011.5 |
| 20260903180905 | 85 | 223 | 2.0 | 9.0 | 0.00 | 0.36 | 0.19 | 67 | 1011.4 |
| 20260903180404 | 84 | 304 | 1.0 | 10.0 | 0.00 | 0.36 | 0.19 | 66 | 1011.4 |
| 20260903175904 | 84 | 167 | 1.0 | 8.0 | 0.00 | 0.36 | 0.19 | 65 | 1011.5 |
| 20260903175404 | 85 | 227 | 1.0 | 7.0 | 0.00 | 0.36 | 0.19 | 65 | 1011.6 |
| 20260903174904 | 83 | 217 | 2.0 | 9.0 | 0.00 | 0.36 | 0.19 | 68 | 1011.7 |
| 20260903174404 | 83 | 231 | 3.0 | 12.0 | 0.00 | 0.36 | 0.19 | 68 | 1011.7 |
| 20260903173404 | 83 | 320 | 3.0 | 9.0 | 0.00 | 0.36 | 0.19 | 69 | 1012.0 |
| 20260903172405 | 83 | 248 | 7.0 | 12.0 | 0.00 | 0.36 | 0.19 | 68 | 1012.3 |
| 20260903171405 | 82 | 267 | 4.0 | 9.0 | 0.00 | 0.36 | 0.19 | 68 | 1012.3 |
| 20260903170405 | 82 | 295 | 8.0 | 13.0 | 0.00 | 0.36 | 0.19 | 68 | 1012.4 |
| 20260903165905 | 82 | 272 | 5.0 | 12.0 | 0.00 | 0.36 | 0.19 | 71 | 1012.6 |
| 20260903165405 | 82 | 236 | 7.0 | 14.0 | 0.00 | 0.36 | 0.19 | 70 | 1012.6 |
| 20260903164905 | 80 | 248 | 5.0 | 13.0 | 0.00 | 0.36 | 0.19 | 72 | 1012.5 |
| 20260903164404 | 80 | 234 | 6.0 | 13.0 | 0.00 | 0.36 | 0.19 | 72 | 1012.5 |
| 20260903163904 | 80 | 257 | 3.0 | 12.0 | 0.00 | 0.36 | 0.19 | 72 | 1012.6 |
| 20260903163405 | 80 | 262 | 5.0 | 13.0 | 0.00 | 0.36 | 0.19 | 73 | 1012.7 |
| 20260903162905 | 80 | 229 | 8.0 | 14.0 | 0.00 | 0.36 | 0.19 | 74 | 1012.7 |
| 20260903162405 | 79 | 238 | 6.0 | 12.0 | 0.00 | 0.36 | 0.19 | 75 | 1012.6 |
| 20260903161905 | 79 | 220 | 2.0 | 10.0 | 0.00 | 0.36 | 0.19 | 75 | 1012.6 |
| 20260903161404 | 80 | 254 | 5.0 | 12.0 | 0.00 | 0.36 | 0.19 | 73 | 1012.6 |
| 20260903160905 | 80 | 227 | 6.0 | 12.0 | 0.00 | 0.36 | 0.19 | 75 | 1012.8 |
| 20260903154906 | 79 | 236 | 4.0 | 9.0 | 0.00 | 0.36 | 0.19 | 76 | 1013.2 |
| 20260903153904 | 78 | 278 | 4.0 | 9.0 | 0.00 | 0.36 | 0.19 | 79 | 1013.4 |
| 20260903152905 | 77 | 232 | 8.0 | 13.0 | 0.00 | 0.36 | 0.19 | 79 | 1013.4 |
| 20260903152404 | 77 | 246 | 6.0 | 13.0 | 0.00 | 0.36 | 0.19 | 82 | 1013.2 |
| 20260903151904 | 76 | 249 | 3.0 | 12.0 | 0.00 | 0.36 | 0.19 | 82 | 1013.2 |
| 20260903151404 | 76 | 230 | 5.0 | 10.0 | 0.00 | 0.36 | 0.19 | 82 | 1013.3 |
| 20260903150904 | 75 | 251 | 6.0 | 9.0 | 0.00 | 0.36 | 0.19 | 84 | 1013.2 |
| 20260903145404 | 75 | 246 | 6.0 | 12.0 | 0.00 | 0.36 | 0.19 | 84 | 1013.1 |
| 20260903144904 | 75 | 241 | 3.0 | 9.0 | 0.00 | 0.36 | 0.19 | 85 | 1013.3 |
| 20260903144404 | 74 | 243 | 1.0 | 7.0 | 0.00 | 0.36 | 0.19 | 86 | 1013.3 |
| 20260903143904 | 74 | 269 | 0.0 | 8.0 | 0.00 | 0.36 | 0.19 | 87 | 1013.3 |
| 20260903143404 | 74 | 234 | 3.0 | 7.0 | 0.00 | 0.36 | 0.19 | 87 | 1013.4 |
| 20260903142904 | 73 | 245 | 5.0 | 9.0 | 0.00 | 0.36 | 0.19 | 87 | 1013.5 |
| 20260903142404 | 73 | 229 | 4.0 | 8.0 | 0.00 | 0.36 | 0.19 | 87 | 1013.5 |
| 20260903141904 | 73 | 263 | 2.0 | 6.0 | 0.00 | 0.36 | 0.19 | 88 | 1013.4 |
| 20260903140904 | 73 | 203 | 4.0 | 9.0 | 0.00 | 0.36 | 0.19 | 88 | 1013.5 |
| 20260903140404 | 73 | 232 | 3.0 | 10.0 | 0.00 | 0.36 | 0.19 | 90 | 1013.4 |
| 20260903135404 | 72 | 201 | 3.0 | 12.0 | 0.00 | 0.36 | 0.19 | 89 | 1013.4 |
| 20260903134404 | 72 | 210 | 2.0 | 8.0 | 0.00 | 0.36 | 0.19 | 91 | 1013.5 |
| 20260903133904 | 71 | 188 | 4.0 | 8.0 | 0.00 | 0.36 | 0.19 | 90 | 1013.4 |
| 20260903133404 | 71 | 208 | 3.0 | 9.0 | 0.00 | 0.36 | 0.19 | 91 | 1013.5 |
| 20260903132404 | 71 | 198 | 2.0 | 9.0 | 0.00 | 0.36 | 0.19 | 92 | 1013.8 |
| 20260903131404 | 70 | 204 | 1.0 | 2.0 | 0.00 | 0.36 | 0.19 | 93 | 1013.6 |
| 20260903130904 | 70 | 206 | 3.0 | 7.0 | 0.00 | 0.36 | 0.19 | 93 | 1013.6 |
| 20260903130405 | 70 | 232 | 0.0 | 0.0 | 0.00 | 0.36 | 0.19 | 94 | 1013.5 |
| 20260903125905 | 69 | 178 | 0.0 | 0.0 | 0.00 | 0.36 | 0.19 | 93 | 1013.7 |
| 20260903124904 | 69 | 178 | 0.0 | 0.0 | 0.00 | 0.36 | 0.19 | 94 | 1013.8 |
| 20260903124404 | 69 | 176 | 0.0 | 0.0 | 0.00 | 0.36 | 0.19 | 95 | 1013.7 |
| 20260903123404 | 69 | 217 | 0.0 | 0.0 | 0.00 | 0.36 | 0.19 | 95 | 1013.8 |
| 20260903122904 | 69 | 217 | 0.0 | 0.0 | 0.00 | 0.36 | 0.19 | 95 | 1013.9 |
| 20260903122404 | 69 | 217 | 0.0 | 0.0 | 0.00 | 0.36 | 0.19 | 95 | 1013.8 |
| 20260903121904 | 68 | 218 | 0.0 | 0.0 | 0.00 | 0.36 | 0.19 | 96 | 1013.7 |
| 20260903121404 | 68 | 217 | 0.0 | 0.0 | 0.00 | 0.36 | 0.19 | 96 | 1013.6 |
| 20260903120904 | 68 | 217 | 0.0 | 0.0 | 0.00 | 0.36 | 0.19 | 95 | 1013.8 |
| 20260903120405 | 68 | 217 | 0.0 | 0.0 | 0.00 | 0.36 | 0.19 | 96 | 1013.5 |
| 20260903115906 | 68 | 217 | 0.0 | 0.0 | 0.00 | 0.36 | 0.19 | 96 | 1013.7 |
| 20260903115404 | 68 | 258 | 0.0 | 0.0 | 0.00 | 0.36 | 0.19 | 95 | 1013.9 |
| 20260903114904 | 68 | 258 | 0.0 | 0.0 | 0.00 | 0.36 | 0.19 | 96 | 1013.9 |
| 20260903114405 | 68 | 258 | 0.0 | 0.0 | 0.00 | 0.36 | 0.19 | 95 | 1013.9 |
| 20260903113905 | 68 | 258 | 0.0 | 0.0 | 0.00 | 0.36 | 0.19 | 96 | 1014.0 |
| 20260903113404 | 68 | 258 | 0.0 | 1.0 | 0.00 | 0.36 | 0.19 | 96 | 1014.0 |
| 20260903112905 | 68 | 259 | 0.0 | 3.0 | 0.00 | 0.36 | 0.19 | 96 | 1013.8 |
| 20260903112405 | 68 | 218 | 0.0 | 1.0 | 0.00 | 0.36 | 0.19 | 96 | 1013.6 |
| 20260903111904 | 68 | 216 | 1.0 | 3.0 | 0.00 | 0.36 | 0.19 | 96 | 1013.7 |
| 20260903111405 | 67 | 260 | 4.0 | 8.0 | 0.00 | 0.36 | 0.19 | 96 | 1013.9 |
| 20260903110905 | 67 | 242 | 1.0 | 9.0 | 0.00 | 0.36 | 0.19 | 96 | 1013.8 |
| 20260903110404 | 67 | 230 | 3.0 | 9.0 | 0.00 | 0.36 | 0.19 | 96 | 1013.7 |
| 20260903105905 | 67 | 216 | 2.0 | 7.0 | 0.00 | 0.36 | 0.19 | 96 | 1013.8 |
| 20260903105405 | 67 | 240 | 0.0 | 0.0 | 0.00 | 0.36 | 0.19 | 96 | 1013.7 |
| 20260903104404 | 68 | 221 | 0.0 | 0.0 | 0.00 | 0.36 | 0.19 | 96 | 1013.8 |
| 20260903103905 | 68 | 228 | 0.0 | 0.0 | 0.00 | 0.36 | 0.19 | 96 | 1013.9 |
| 20260903103405 | 68 | 249 | 0.0 | 0.0 | 0.00 | 0.36 | 0.19 | 96 | 1014.0 |
| 20260903102905 | 68 | 249 | 0.0 | 1.0 | 0.00 | 0.36 | 0.19 | 96 | 1014.0 |
| 20260903100906 | 68 | 241 | 0.0 | 1.0 | 0.00 | 0.36 | 0.19 | 96 | 1013.9 |
| 20260903100404 | 68 | 240 | 2.0 | 5.0 | 0.00 | 0.36 | 0.19 | 96 | 1013.6 |
| 20260903095905 | 68 | 183 | 0.0 | 0.0 | 0.00 | 0.36 | 0.19 | 96 | 1013.6 |
| 20260903095404 | 68 | 182 | 0.0 | 0.0 | 0.01 | 0.36 | 0.19 | 96 | 1013.4 |
| 20260903094906 | 68 | 183 | 0.0 | 0.0 | 0.01 | 0.36 | 0.19 | 96 | 1013.5 |
| 20260903094405 | 68 | 182 | 0.0 | 0.0 | 0.01 | 0.36 | 0.19 | 96 | 1013.5 |
| 20260903093905 | 68 | 183 | 0.0 | 0.0 | 0.01 | 0.36 | 0.19 | 96 | 1013.4 |
| 20260903093405 | 68 | 182 | 0.0 | 0.0 | 0.01 | 0.36 | 0.19 | 96 | 1013.0 |
| 20260903092906 | 68 | 217 | 0.0 | 0.0 | 0.01 | 0.36 | 0.19 | 96 | 1013.4 |
| 20260903091904 | 68 | 250 | 3.0 | 7.0 | 0.02 | 0.36 | 0.19 | 96 | 1013.8 |
| 20260903090405 | 68 | 213 | 2.0 | 6.0 | 0.02 | 0.36 | 0.19 | 96 | 1013.5 |
| 20260903085404 | 68 | 230 | 1.0 | 6.0 | 0.01 | 0.35 | 0.18 | 96 | 1013.5 |
| 20260903084903 | 68 | 211 | 2.0 | 6.0 | 0.01 | 0.35 | 0.18 | 96 | 1013.6 |
| 20260903084404 | 68 | 222 | 2.0 | 3.0 | 0.01 | 0.35 | 0.18 | 96 | 1013.0 |
| 20260903083904 | 68 | 189 | 1.0 | 3.0 | 0.01 | 0.35 | 0.18 | 96 | 1013.0 |
| 20260903083404 | 68 | 182 | 1.0 | 10.0 | 0.01 | 0.35 | 0.18 | 96 | 1012.7 |
| 20260903082904 | 68 | 165 | 3.0 | 8.0 | 0.02 | 0.35 | 0.18 | 96 | 1013.9 |
| 20260903082404 | 68 | 196 | 4.0 | 8.0 | 0.02 | 0.36 | 0.18 | 96 | 1013.9 |
| 20260903081904 | 68 | 202 | 3.0 | 9.0 | 0.01 | 0.35 | 0.17 | 96 | 1014.2 |
| 20260903081404 | 68 | 216 | 1.0 | 6.0 | 0.01 | 0.35 | 0.17 | 96 | 1014.4 |
| 20260903080404 | 68 | 234 | 2.0 | 5.0 | 0.02 | 0.35 | 0.17 | 96 | 1014.5 |
| 20260903075905 | 68 | 226 | 1.0 | 5.0 | 0.02 | 0.35 | 0.17 | 96 | 1014.5 |
| 20260903075404 | 68 | 210 | 2.0 | 3.0 | 0.03 | 0.35 | 0.17 | 96 | 1014.4 |
| 20260903074904 | 68 | 224 | 2.0 | 5.0 | 0.03 | 0.35 | 0.17 | 96 | 1014.2 |
| 20260903074404 | 67 | 215 | 2.0 | 5.0 | 0.05 | 0.35 | 0.17 | 96 | 1014.1 |
| 20260903073903 | 67 | 224 | 1.0 | 5.0 | 0.06 | 0.35 | 0.17 | 96 | 1013.8 |
| 20260903073404 | 67 | 174 | 2.0 | 5.0 | 0.06 | 0.35 | 0.17 | 96 | 1014.1 |
| 20260903072904 | 67 | 185 | 1.0 | 3.0 | 0.06 | 0.34 | 0.16 | 96 | 1014.2 |
| 20260903072404 | 67 | 167 | 1.0 | 5.0 | 0.06 | 0.34 | 0.16 | 96 | 1014.1 |
| 20260903071904 | 67 | 160 | 1.0 | 3.0 | 0.07 | 0.34 | 0.16 | 96 | 1013.9 |
| 20260903071405 | 67 | 152 | 2.0 | 5.0 | 0.07 | 0.34 | 0.16 | 96 | 1014.2 |
| 20260903070405 | 67 | 167 | 0.0 | 0.0 | 0.06 | 0.33 | 0.15 | 96 | 1014.5 |
| 20260903065905 | 67 | 184 | 0.0 | 0.0 | 0.06 | 0.33 | 0.15 | 96 | 1014.6 |
| 20260903065404 | 67 | 218 | 0.0 | 0.0 | 0.06 | 0.32 | 0.14 | 95 | 1014.6 |
| 20260903064905 | 67 | 281 | 0.0 | 0.0 | 0.06 | 0.32 | 0.14 | 95 | 1014.8 |
| 20260903064405 | 67 | 314 | 0.0 | 0.0 | 0.04 | 0.30 | 0.12 | 95 | 1014.9 |
| 20260903063904 | 67 | 314 | 0.0 | 1.0 | 0.03 | 0.29 | 0.11 | 95 | 1014.9 |
| 20260903063404 | 66 | 314 | 0.0 | 0.0 | 0.04 | 0.29 | 0.11 | 95 | 1015.0 |
| 20260903062904 | 66 | 314 | 0.0 | 0.0 | 0.03 | 0.28 | 0.10 | 95 | 1015.0 |
| 20260903062404 | 66 | 314 | 0.0 | 0.0 | 0.04 | 0.28 | 0.10 | 95 | 1015.0 |
| 20260903061904 | 67 | 327 | 0.0 | 0.0 | 0.04 | 0.27 | 0.09 | 95 | 1015.1 |
| 20260903061404 | 67 | 327 | 0.0 | 0.0 | 0.04 | 0.27 | 0.09 | 95 | 1015.1 |
| 20260903060904 | 66 | 327 | 0.0 | 0.0 | 0.04 | 0.27 | 0.09 | 95 | 1015.3 |
| 20260903060405 | 66 | 327 | 0.0 | 0.0 | 0.05 | 0.27 | 0.09 | 95 | 1015.4 |
| 20260903055904 | 66 | 158 | 0.0 | 0.0 | 0.05 | 0.27 | 0.09 | 95 | 1015.5 |
| 20260903054905 | 66 | 157 | 0.0 | 0.0 | 0.06 | 0.26 | 0.08 | 95 | 1015.4 |
| 20260903054404 | 66 | 156 | 0.0 | 0.0 | 0.07 | 0.26 | 0.08 | 95 | 1015.6 |
| 20260903053905 | 66 | 156 | 0.0 | 3.0 | 0.08 | 0.26 | 0.08 | 95 | 1015.6 |
| 20260903052405 | 66 | 134 | 0.0 | 0.0 | 0.06 | 0.24 | 0.06 | 95 | 1015.6 |
| 20260903051406 | 66 | 312 | 0.0 | 0.0 | 0.05 | 0.23 | 0.05 | 95 | 1016.6 |
| 20260903050905 | 66 | 312 | 0.0 | 0.0 | 0.05 | 0.23 | 0.05 | 95 | 1017.0 |
| 20260903050405 | 66 | 312 | 0.0 | 0.0 | 0.04 | 0.22 | 0.04 | 94 | 1017.0 |
| 20260903045904 | 66 | 312 | 0.0 | 0.0 | 0.04 | 0.22 | 0.04 | 94 | 1017.2 |
| 20260903044904 | 66 | 311 | 0.0 | 0.0 | 0.02 | 0.20 | 0.02 | 95 | 1017.5 |
| 20260903044405 | 67 | 308 | 0.0 | 0.0 | 0.01 | 0.19 | 0.01 | 94 | 1017.7 |
| 20260903043905 | 67 | 296 | 0.0 | 0.0 | 0.00 | 0.18 | 0.00 | 94 | 1016.9 |
| 20260903043404 | 67 | 299 | 0.0 | 0.0 | 0.00 | 0.18 | 0.00 | 94 | 1016.9 |
| 20260903042905 | 67 | 299 | 0.0 | 0.0 | 0.00 | 0.18 | 0.00 | 94 | 1017.0 |
| 20260903042405 | 67 | 300 | 0.0 | 0.0 | 0.00 | 0.18 | 0.00 | 94 | 1017.2 |
| 20260903041905 | 67 | 299 | 0.0 | 0.0 | 0.00 | 0.18 | 0.00 | 94 | 1017.4 |
| 20260903041405 | 67 | 300 | 0.0 | 0.0 | 0.00 | 0.18 | 0.00 | 94 | 1017.5 |
| 20260903040905 | 67 | 356 | 0.0 | 0.0 | 0.00 | 0.18 | 0.00 | 94 | 1017.3 |
| 20260903040405 | 67 | 79 | 0.0 | 0.0 | 0.00 | 0.18 | 0.00 | 94 | 1017.1 |
| 20260903035905 | 67 | 109 | 0.0 | 0.0 | 0.00 | 0.18 | 0.18 | 94 | 1016.9 |
| 20260903035405 | 67 | 109 | 0.0 | 0.0 | 0.00 | 0.18 | 0.18 | 94 | 1017.0 |
| 20260903034905 | 67 | 109 | 0.0 | 0.0 | 0.00 | 0.18 | 0.18 | 94 | 1017.0 |
| 20260903034405 | 67 | 109 | 0.0 | 0.0 | 0.00 | 0.18 | 0.18 | 93 | 1016.9 |
| 20260903033905 | 67 | 109 | 0.0 | 0.0 | 0.00 | 0.18 | 0.18 | 93 | 1016.9 |
| 20260903033405 | 67 | 109 | 0.0 | 0.0 | 0.00 | 0.18 | 0.18 | 93 | 1017.0 |
| 20260903032905 | 67 | 109 | 0.0 | 0.0 | 0.00 | 0.18 | 0.18 | 93 | 1017.0 |
| 20260903031905 | 67 | 109 | 0.0 | 0.0 | 0.00 | 0.18 | 0.18 | 93 | 1016.9 |
| 20260903031403 | 67 | 109 | 0.0 | 0.0 | 0.00 | 0.18 | 0.18 | 93 | 1016.8 |
| 20260903030904 | 67 | 109 | 0.0 | 0.0 | 0.00 | 0.18 | 0.18 | 93 | 1016.8 |
| 20260903030404 | 67 | 109 | 0.0 | 0.0 | 0.00 | 0.18 | 0.18 | 93 | 1016.8 |
| 20260903025904 | 67 | 109 | 0.0 | 0.0 | 0.00 | 0.18 | 0.18 | 93 | 1016.8 |
| 20260903025404 | 67 | 109 | 0.0 | 0.0 | 0.00 | 0.18 | 0.18 | 93 | 1017.0 |
| 20260903024905 | 67 | 109 | 0.0 | 0.0 | 0.00 | 0.18 | 0.18 | 93 | 1016.8 |
| 20260903024403 | 67 | 109 | 0.0 | 0.0 | 0.00 | 0.18 | 0.18 | 93 | 1017.0 |
| 20260903023904 | 67 | 109 | 0.0 | 0.0 | 0.00 | 0.18 | 0.18 | 93 | 1016.9 |
| 20260903023403 | 67 | 109 | 0.0 | 0.0 | 0.00 | 0.18 | 0.18 | 93 | 1016.9 |
| 20260903021904 | 67 | 109 | 0.0 | 0.0 | 0.00 | 0.18 | 0.18 | 92 | 1017.4 |
| 20260903021404 | 67 | 109 | 0.0 | 0.0 | 0.00 | 0.18 | 0.18 | 92 | 1017.4 |
| 20260903020904 | 67 | 109 | 0.0 | 0.0 | 0.00 | 0.18 | 0.18 | 92 | 1017.4 |
| 20260903020404 | 67 | 109 | 0.0 | 0.0 | 0.00 | 0.18 | 0.18 | 92 | 1017.2 |
| 20260903015904 | 67 | 109 | 0.0 | 0.0 | 0.00 | 0.18 | 0.18 | 92 | 1017.0 |
| 20260903015404 | 67 | 109 | 0.0 | 0.0 | 0.00 | 0.18 | 0.18 | 92 | 1016.8 |
| 20260903014403 | 67 | 108 | 0.0 | 0.0 | 0.00 | 0.18 | 0.18 | 92 | 1017.0 |
| 20260903012904 | 67 | 108 | 0.0 | 0.0 | 0.00 | 0.18 | 0.18 | 92 | 1017.4 |
| 20260903012404 | 67 | 108 | 0.0 | 0.0 | 0.00 | 0.18 | 0.18 | 92 | 1017.5 |
| 20260903011904 | 67 | 107 | 0.0 | 0.0 | 0.00 | 0.18 | 0.18 | 92 | 1017.4 |
| 20260903011404 | 67 | 106 | 0.0 | 0.0 | 0.00 | 0.18 | 0.18 | 92 | 1017.7 |
| 20260903010905 | 67 | 104 | 0.0 | 0.0 | 0.00 | 0.18 | 0.18 | 92 | 1017.8 |
| 20260903010404 | 67 | 105 | 0.0 | 0.0 | 0.00 | 0.18 | 0.18 | 92 | 1017.9 |
| 20260903005905 | 67 | 105 | 0.0 | 0.0 | 0.00 | 0.18 | 0.18 | 92 | 1017.6 |
| 20260903005404 | 67 | 101 | 0.0 | 0.0 | 0.00 | 0.18 | 0.18 | 92 | 1017.7 |
| 20260903004904 | 67 | 101 | 0.0 | 0.0 | 0.00 | 0.18 | 0.18 | 92 | 1017.8 |
| 20260903004404 | 67 | 101 | 0.0 | 0.0 | 0.00 | 0.18 | 0.18 | 92 | 1017.9 |
| 20260903003904 | 67 | 101 | 0.0 | 0.0 | 0.00 | 0.18 | 0.18 | 92 | 1018.0 |
| 20260903003404 | 67 | 101 | 0.0 | 0.0 | 0.00 | 0.18 | 0.18 | 92 | 1018.0 |
| 20260903002904 | 67 | 101 | 0.0 | 0.0 | 0.00 | 0.18 | 0.18 | 92 | 1018.0 |
| 20260903002404 | 67 | 101 | 0.0 | 0.0 | 0.00 | 0.18 | 0.18 | 92 | 1018.0 |
| 20260903001406 | 67 | 101 | 0.0 | 0.0 | 0.00 | 0.18 | 0.18 | 91 | 1017.5 |
| 20260903000405 | 67 | 101 | 0.0 | 0.0 | 0.00 | 0.18 | 0.18 | 91 | 1017.2 |
| 20260902235905 | 67 | 100 | 0.0 | 0.0 | 0.00 | 0.18 | 0.18 | 91 | 1017.2 |
| 20260902235404 | 67 | 104 | 0.0 | 0.0 | 0.00 | 0.18 | 0.18 | 91 | 1017.2 |
| 20260902234904 | 67 | 105 | 0.0 | 0.0 | 0.00 | 0.18 | 0.18 | 91 | 1017.3 |
| 20260902234405 | 67 | 101 | 0.0 | 0.0 | 0.00 | 0.18 | 0.18 | 91 | 1017.2 |
| 20260902233904 | 67 | 96 | 0.0 | 0.0 | 0.00 | 0.18 | 0.18 | 91 | 1017.2 |
| 20260902232405 | 67 | 97 | 0.0 | 0.0 | 0.00 | 0.26 | 0.18 | 92 | 1017.2 |
| 20260902231905 | 67 | 107 | 0.0 | 0.0 | 0.00 | 0.28 | 0.18 | 92 | 1017.1 |
| 20260902231404 | 67 | 107 | 0.0 | 0.0 | 0.00 | 0.35 | 0.18 | 92 | 1017.1 |
| 20260902230904 | 67 | 107 | 0.0 | 0.0 | 0.00 | 0.36 | 0.18 | 92 | 1017.2 |
| 20260902230404 | 67 | 107 | 0.0 | 0.0 | 0.00 | 0.36 | 0.18 | 92 | 1017.3 |
| 20260902225905 | 67 | 107 | 0.0 | 0.0 | 0.00 | 0.37 | 0.18 | 93 | 1017.1 |
| 20260902224905 | 67 | 104 | 0.0 | 0.0 | 0.00 | 0.38 | 0.18 | 93 | 1017.4 |
| 20260902224405 | 67 | 105 | 0.0 | 0.0 | 0.00 | 0.38 | 0.18 | 93 | 1017.5 |
| 20260902223905 | 67 | 105 | 0.0 | 0.0 | 0.00 | 0.38 | 0.18 | 93 | 1017.9 |
| 20260902223406 | 67 | 105 | 0.0 | 0.0 | 0.00 | 0.41 | 0.18 | 93 | 1017.9 |
| 20260902222404 | 67 | 105 | 0.0 | 0.0 | 0.00 | 0.43 | 0.18 | 93 | 1017.9 |
| 20260902221405 | 67 | 101 | 0.0 | 0.0 | 0.00 | 0.43 | 0.18 | 93 | 1017.9 |
| 20260902220904 | 67 | 101 | 0.0 | 0.0 | 0.00 | 0.43 | 0.18 | 93 | 1017.9 |
| 20260902220404 | 67 | 108 | 0.0 | 0.0 | 0.00 | 0.43 | 0.18 | 93 | 1018.1 |
| 20260902215904 | 67 | 128 | 0.0 | 0.0 | 0.00 | 0.43 | 0.18 | 93 | 1018.2 |
| 20260902215405 | 67 | 128 | 0.0 | 0.0 | 0.00 | 0.43 | 0.18 | 93 | 1018.3 |
| 20260902214905 | 67 | 129 | 0.0 | 0.0 | 0.00 | 0.43 | 0.18 | 93 | 1018.3 |
| 20260902214405 | 67 | 130 | 0.0 | 0.0 | 0.00 | 0.43 | 0.18 | 93 | 1018.3 |
| 20260902213906 | 67 | 112 | 0.0 | 0.0 | 0.00 | 0.44 | 0.18 | 93 | 1018.3 |
| 20260902213405 | 67 | 101 | 0.0 | 0.0 | 0.00 | 0.46 | 0.18 | 93 | 1018.3 |
| 20260902212905 | 67 | 105 | 0.0 | 0.0 | 0.00 | 0.46 | 0.18 | 93 | 1018.3 |
| 20260902212403 | 67 | 111 | 0.0 | 0.0 | 0.00 | 0.46 | 0.18 | 93 | 1018.2 |
| 20260902211903 | 67 | 107 | 0.0 | 0.0 | 0.00 | 0.46 | 0.18 | 93 | 1018.0 |
| 20260902211404 | 67 | 93 | 0.0 | 0.0 | 0.00 | 0.46 | 0.18 | 93 | 1018.0 |
| 20260902210903 | 67 | 102 | 0.0 | 0.0 | 0.00 | 0.46 | 0.18 | 93 | 1018.0 |
| 20260902210403 | 67 | 107 | 0.0 | 0.0 | 0.00 | 0.46 | 0.18 | 93 | 1018.1 |
| 20260902205904 | 67 | 117 | 0.0 | 0.0 | 0.00 | 0.46 | 0.18 | 93 | 1018.0 |
| 20260902205405 | 67 | 117 | 0.0 | 0.0 | 0.00 | 0.46 | 0.18 | 93 | 1018.0 |
| 20260902204904 | 67 | 138 | 0.0 | 0.0 | 0.00 | 0.46 | 0.18 | 93 | 1018.0 |
| 20260902203904 | 67 | 128 | 0.0 | 0.0 | 0.01 | 0.46 | 0.18 | 93 | 1017.9 |
| 20260902203403 | 67 | 101 | 0.0 | 0.0 | 0.01 | 0.46 | 0.18 | 93 | 1017.9 |
| 20260902202904 | 67 | 101 | 0.0 | 0.0 | 0.01 | 0.46 | 0.18 | 93 | 1017.9 |
| 20260902202405 | 67 | 104 | 0.0 | 0.0 | 0.02 | 0.46 | 0.18 | 93 | 1017.9 |
| 20260902201904 | 67 | 96 | 0.0 | 0.0 | 0.08 | 0.46 | 0.18 | 93 | 1018.0 |
| 20260902201405 | 67 | 96 | 0.0 | 2.0 | 0.09 | 0.46 | 0.18 | 93 | 1017.9 |
| 20260902200904 | 67 | 99 | 1.0 | 3.0 | 0.10 | 0.46 | 0.18 | 93 | 1018.0 |
| 20260902200403 | 67 | 102 | 0.0 | 2.0 | 0.12 | 0.46 | 0.18 | 94 | 1018.1 |
| 20260902195404 | 67 | 102 | 1.0 | 3.0 | 0.13 | 0.46 | 0.18 | 93 | 1018.3 |
| 20260902194904 | 67 | 104 | 0.0 | 2.0 | 0.13 | 0.46 | 0.18 | 93 | 1018.3 |
| 20260902194404 | 67 | 103 | 0.0 | 3.0 | 0.13 | 0.46 | 0.18 | 93 | 1018.3 |
| 20260902193904 | 67 | 100 | 0.0 | 2.0 | 0.13 | 0.45 | 0.17 | 93 | 1018.2 |
| 20260902193404 | 67 | 98 | 0.0 | 2.0 | 0.16 | 0.45 | 0.17 | 93 | 1018.4 |
| 20260902192904 | 67 | 7 | 0.0 | 2.0 | 0.16 | 0.45 | 0.17 | 93 | 1018.5 |
| 20260902191404 | 67 | 351 | 0.0 | 0.0 | 0.08 | 0.37 | 0.09 | 92 | 1018.7 |
| 20260902190905 | 67 | 351 | 0.0 | 1.0 | 0.07 | 0.36 | 0.08 | 91 | 1019.0 |